Content
SEND FEEDBACK

Daily
Averages
Monthly
Summary
Switzerland

VERSOIX, SWITZERLAND


Home > Europe > Switzerland
Elevation: 1365 feet     Latitude: 46 12N     Longitude: 006 12E

WEATHER
 
SELECT A DAY
Number of Records: 315,631;   Date Range: 7/1/96 - 11/25/14
 
SHARE

PRINT THIS DATA

[ ← Previous Day ]
WEATHER ALMANAC - NOVEMBER 21, 2013
[ Next Day → ]
[ °C ]   °F
Weather ElementAverageHighLow
Temperature34.9 °F38 °F (2:00 pm)32 °F (4:20 am)
Dewpoint32.1 °F33.8 °F (10:50 am)29 °F (1:00 am)
Humidity88.1 %100 % (4:20 am)71 % (12:00 pm)
Barometer29.48 in29.65 in (1:00 am)29.42 in (5:20 am)
Wind Speed6.2 mph12.7 mph (8:00 am)
Weather ElementAverage
Visibility6 mi
Wind DirectionS (184.7 °)

Weather ElementTotal
Precipitation---
Heating Degree Days30 (Base 65)
Averaged from 66 records on November 21, 2013
WEATHER CONDITIONS BREAKOUT
WIND DIRECTION BREAKOUT
WEATHER BY HOUR - NOVEMBER 21, 2013
[ °C ]   °F
Local TimeTemperatureDewpointHumidityBarometerVisibilityWind DirectionWind SpeedGust SpeedPrecipitationEventsConditions
12:20 AM33.8 °F32.0 °F93 %29.59 in6.2 miWSW (240°)6.9 mphMostly Cloudy
12:50 AM33.8 °F30.2 °F87 %29.59 in6.2 miWSW (250°)6.9 mphMostly Cloudy
1:00 AM34.0 °F29.0 °F76 %29.65 in16.0 miWest (260°)6.9 mphMostly Cloudy
1:20 AM33.8 °F30.2 °F87 %29.56 in6.2 miWSW (240°)10.4 mphMostly Cloudy
1:50 AM33.8 °F30.2 °F87 %29.53 in6.2 miWSW (240°)10.4 mphMostly Cloudy
2:00 AM34.0 °F30.0 °F78 %29.60 inWSW (250°)8.1 mph
2:50 AM33.8 °F30.2 °F87 %29.50 in6.2 miWest (260°)9.2 mphMostly Cloudy
3:00 AM34.0 °F29.0 °F76 %29.57 inWest (260°)8.1 mph
3:20 AM33.8 °F30.2 °F87 %29.50 in6.2 miWSW (240°)6.9 mphMostly Cloudy
3:50 AM33.8 °F32.0 °F93 %29.47 inWSW (250°)6.9 mphSnowLight Snow
4:20 AM32.0 °F32.0 °F100 %29.44 in2.2 miWest (270°)8.1 mphSnowLight Snow
4:50 AM32.0 °F32.0 °F100 %29.44 in0.8 miWest (270°)6.9 mphSnowSnow
5:00 AM33.0 °F31.0 °F88 %29.49 inWest (260°)8.1 mph
5:20 AM32.0 °F32.0 °F100 %29.42 in0.8 miWest (260°)8.1 mphSnowSnow
5:50 AM32.0 °F32.0 °F100 %29.42 in0.9 miWSW (240°)6.9 mphSnowSnow
6:00 AM33.0 °F31.0 °F90 %29.48 inWest (260°)5.8 mph
6:20 AM32.0 °F32.0 °F100 %29.42 in0.8 miWSW (250°)5.8 mphSnowSnow
6:50 AM32.0 °F32.0 °F100 %29.42 in0.9 miWSW (240°)5.8 mphSnowSnow
7:00 AM33.0 °F31.0 °F92 %29.47 in1.0 miSW (230°)6.9 mphSnowSnow
7:20 AM32.0 °F32.0 °F100 %29.42 in1.2 miSW (230°)6.9 mphSnowLight Snow
7:50 AM32.0 °F32.0 °F100 %29.42 in1.9 miSSW (210°)10.4 mphSnowLight Snow
8:00 AM33.0 °F32.0 °F92 %29.49 inSSW (210°)12.7 mph
8:20 AM32.0 °F32.0 °F100 %29.42 in1.9 miSSW (210°)10.4 mphSnowLight Snow
8:50 AM33.8 °F32.0 °F93 %29.44 in5.6 miSSW (210°)11.5 mphMostly Cloudy
9:00 AM35.0 °F31.0 °F79 %29.49 inSSW (210°)11.5 mph
9:20 AM33.8 °F32.0 °F93 %29.44 in6.2 miSSW (200°)12.7 mphMostly Cloudy
9:50 AM33.8 °F32.0 °F93 %29.44 in6.2 miSSW (210°)10.4 mphMostly Cloudy
10:20 AM35.6 °F32.0 °F87 %29.44 in6.2 miSSW (200°)10.4 mphMostly Cloudy
10:50 AM35.6 °F33.8 °F93 %29.44 in6.2 miSSW (200°)12.7 mphMostly Cloudy
11:00 AM36.0 °F31.0 °F76 %29.51 inSouth (190°)10.4 mph
11:20 AM35.6 °F32.0 °F87 %29.44 in6.2 miSSW (200°)9.2 mphMostly Cloudy
11:50 AM35.6 °F32.0 °F87 %29.44 in6.2 miSW (230°)9.2 mphMostly Cloudy
12:00 PM36.0 °F30.0 °F71 %29.51 inSW (220°)11.5 mph
12:20 PM37.4 °F32.0 °F81 %29.44 in6.2 miSW (220°)12.7 mphMostly Cloudy
12:50 PM37.4 °F32.0 °F81 %29.44 in6.2 miSW (230°)9.2 mphMostly Cloudy
1:00 PM37.0 °F31.0 °F72 %29.50 in22.0 miWSW (250°)6.9 mphPartly Cloudy
1:20 PM37.4 °F33.8 °F87 %29.44 in6.2 miWSW (250°)6.9 mphMostly Cloudy
1:50 PM37.4 °F33.8 °F87 %29.44 in6.2 miSW (230°)9.2 mphMostly Cloudy
2:00 PM38.0 °F32.0 °F71 %29.49 inSW (230°)11.5 mph
2:20 PM37.4 °F33.8 °F87 %29.44 in6.2 miWSW (240°)6.9 mphMostly Cloudy
2:50 PM37.4 °F33.8 °F87 %29.44 in6.2 miWSW (240°)5.8 mphMostly Cloudy
3:00 PM38.0 °F32.0 °F71 %29.50 inWSW (250°)5.8 mph
3:20 PM37.4 °F33.8 °F87 %29.44 in6.2 miWSW (250°)4.6 mphMostly Cloudy
3:50 PM37.4 °F32.0 °F81 %29.44 in6.2 miVariable1.2 mphMostly Cloudy
4:20 PM37.4 °F32.0 °F81 %29.44 in6.2 miVariable2.3 mphMostly Cloudy
4:50 PM37.4 °F33.8 °F87 %29.47 in6.2 miVariable2.3 mphMostly Cloudy
5:00 PM37.0 °F32.0 °F75 %29.52 inNW (310°)3.5 mph
5:20 PM37.4 °F33.8 °F87 %29.47 in6.2 miVariable2.3 mphMostly Cloudy
5:50 PM37.4 °F33.8 °F87 %29.47 in6.2 miWest (260°)3.5 mphMostly Cloudy
6:00 PM37.0 °F32.0 °F76 %29.52 inWSW (240°)3.5 mph
6:20 PM35.6 °F33.8 °F93 %29.47 in6.2 miWSW (240°)4.6 mphMostly Cloudy
6:50 PM35.6 °F33.8 °F93 %29.47 in6.2 miVariable1.2 mphMostly Cloudy
7:00 PM36.0 °F33.0 °F82 %29.53 in19.0 miWNW (290°)1.2 mphMostly Cloudy
7:20 PM35.6 °F33.8 °F93 %29.47 in6.2 miVariable1.2 mphMostly Cloudy
7:50 PM35.6 °F32.0 °F87 %29.47 in6.2 miWest (280°)2.3 mphMostly Cloudy
8:00 PM36.0 °F31.0 °F77 %29.54 inWest (270°)2.3 mph
8:20 PM35.6 °F32.0 °F87 %29.47 in6.2 miCalmMostly Cloudy
8:50 PM35.6 °F33.8 °F93 %29.47 in6.2 miCalmMostly Cloudy
9:00 PM36.0 °F32.0 °F79 %29.54 inNorth (10°)1.2 mph
9:20 PM35.6 °F33.8 °F93 %29.47 in6.2 miCalmMostly Cloudy
9:50 PM33.8 °F33.8 °F100 %29.47 in6.2 miNorth (10°)1.2 mphMostly Cloudy
10:20 PM33.8 °F32.0 °F93 %29.47 in6.2 miCalmMostly Cloudy
10:50 PM33.8 °F33.8 °F100 %29.47 in6.2 miCalmMostly Cloudy
11:00 PM34.0 °F32.0 °F89 %29.54 inSouth (190°)2.3 mph
11:20 PM33.8 °F33.8 °F100 %29.47 in6.2 miVariable1.2 mphSnowLight Snow
11:50 PM33.8 °F33.8 °F100 %29.47 in6.2 miCalmOvercast
Hourly data recorded from LSGG, located miles away from Versoix, Switzerland







STORIES FROM OUR PARTNERS